Miscellaneous Local Product
Issued by NWS Hastings, NE

Home | Current Version | Previous Version | Graphics & Text | Print | Product List | Glossary On
Versions: 1 2 3 4 5 6 7 8 9 10 11 12 13 14 15 16 17 18 19 20 21 22 23 24 25 26 27 28 29 30 31 32 33 34 35 36 37 38 39 40 41 42 43 44 45 46 47 48 49 50
000
AXUS43 KGID 011602
MISGRI

GID CWA HOURLY WEATHER ROUNDUP
NATIONAL WEATHER SERVICE HASTINGS NE
1100 AM CDT WED OCT 01 2014

NOTE: "FAIR" INDICATES FEW OR NO CLOUDS BELOW 12,000 FEET WITH NO
SIGNIFICANT WEATHER AND/OR OBSTRUCTIONS TO VISIBILITY.

...SOUTH CENTRAL NEBRASKA...

CITY           SKY/WX    TMP DP  RH WIND       PRES   REMARKS
GRAND ISLAND   MOSUNNY   66  61  84 SE6       29.78R
HASTINGS       MOSUNNY   67  59  75 SE5       29.78R
KEARNEY        SUNNY     68  54  60 CALM      29.79R
ORD            MOSUNNY   70  51  51 N5        29.77R
YORK           MOSUNNY   68  63  83 SE5       29.77R
AURORA         MOSUNNY   69  64  82 S6        29.77S
LEXINGTON      MOSUNNY   61  59  94 W7        29.80S
HOLDREGE       SUNNY     69  55  62 CALM      29.79S
HEBRON         CLOUDY    67  62  85 NE5       29.77R

...NEBRASKA PANHANDLE...

CITY           SKY/WX    TMP DP  RH WIND       PRES   REMARKS
CHADRON        CLOUDY    57  48  72 W13       29.88R
ALLIANCE       MOSUNNY   58  47  66 N10       29.87R
SCOTTSBLUFF    PTSUNNY   55  47  74 NW6       29.90R
SIDNEY         MOSUNNY   62  44  51 N8        29.90R

...WESTERN AND NORTH CENTRAL NEBRASKA...

CITY           SKY/WX    TMP DP  RH WIND       PRES   REMARKS
VALENTINE      SUNNY     65  48  54 N13       29.82S
AINSWORTH      SUNNY     64  48  56 NW13      29.82S
ONEILL         SUNNY     68  53  57 N14       29.78S
BROKEN BOW     SUNNY     70  52  52 N10       29.79R
IMPERIAL       MOSUNNY   61  47  59 N9        29.84S
NORTH PLATTE   SUNNY     67  47  48 N9        29.82S
MCCOOK         MOSUNNY   65  50  58 CALM      29.82R

...EASTERN NEBRASKA...

CITY           SKY/WX    TMP DP  RH WIND       PRES   REMARKS
NORFOLK        SUNNY     69  59  70 SW6       29.75R
SO SIOUX CITY  MOSUNNY   68  61  78 SE10      29.73F
TEKAMAH        MOSUNNY   69  61  75 S7        29.75F
COLUMBUS       SUNNY     66  61  82 CALM      29.77R
ALBION         SUNNY     68  60  75 CALM      29.77R
OMAHA EPPLEY   PTSUNNY   68  62  81 SE6       29.76S
OFFUTT AFB     PTSUNNY   67  67  99 E7        29.76S
MILLARD        CLOUDY    67  62  84 SE6       29.76R
LINCOLN        CLOUDY    66  61  84 N5        29.77S
NEBRASKA CITY  CLOUDY    66  66 100 S3        29.76R
BEATRICE       CLOUDY    67  65  91 N9        29.76R
FALLS CITY     CLOUDY    68  65  90 SE7       29.76R

...NORTHERN KANSAS...

CITY           SKY/WX    TMP DP  RH WIND       PRES   REMARKS
GOODLAND       SUNNY     65  44  46 N10       29.87S
HILL CITY      CLOUDY    65  59  81 NE3       29.81R
NORTON         MOSUNNY   68  57  68 CALM      29.80S
PHILLIPSBURG   SUNNY     73  61  64 CALM      29.79S
SMITH CENTER   SUNNY     72  61  68 E5        29.79S
BELOIT         CLOUDY    64  64 100 E5        29.77S
HAYS           CLOUDY    63  57  82 NE10      29.79S
RUSSELL        CLOUDY    63  62  97 NE9       29.77S FOG
CONCORDIA      CLOUDY    68  64  87 CALM      29.77S
SALINA         PTSUNNY   70  64  81 NW10      29.76S
TOPEKA         CLOUDY    72  67  84 SW7       29.77R



USA.gov is the U.S. government's official web portal to all federal, state and local government web resources and services.